Location: Falniów
(50.3639°N, 19.9642°E)
Time: 22:49:51
(UTC+00:00)

SeaSat 1 - Pass Details

Date: 18 January 2026
Orbit: 737 x 740 km, 108.0° (Epoch: 16 February)

Event Time Altitude Azimuth Distance (km) Brightness Sun altitude
Rises 05:26:09 0° 30° (NNE) 3,185 5.8 -10.2°
Reaches altitude 10° 05:28:25 10° 32° (NNE) 2,259 5.1 -9.9°
Maximum altitude 05:33:21 81° 119° (ESE) 755 2.6 -9.2°
Drops below altitude 10° 05:38:14 10° 208° (SSW) 2,244 4.9 -8.4°
Sets 05:40:29 0° 209° (SSW) 3,163 5.6 -8.1°
